Sydney, Australia

1:14 AM AEDT on December 06, 2016 (GMT +1100)
Kingsford Smith International

Weather History for YSSY - October, 2013

Change the Weather History Date:

Sunday, October 13, 2013

  Actual Average Record
Temperature  
Mean Temperature 80 °F -  
Max Temperature 96 °F 72 °F 100 °F (2004)
Min Temperature 62 °F 56 °F 47 °F (2012)
Cooling Degree Days 14    
Growing Degree Days 30 (Base 50)    
Moisture  
Dew Point 42 °F    
Average Humidity 42    
Maximum Humidity 94    
Minimum Humidity 4    
Precipitation  
Precipitation 0.12 in - - ()
Sea Level Pressure  
Sea Level Pressure 29.53 in    
Wind  
Wind Speed 14 mph ()    
Max Wind Speed 39 mph    
Max Gust Speed 51 mph    
Visibility 10.5 miles    
Events Rain    
Averages and records for this station are not official NWS values.
T = Trace of Precipitation, MM = Missing Value Source: Averaged Metar Reports

Daily Weather History Graph

Daily Weather History Graph

Search for Another Location

Airport or City:

Trip Planner

Search our weather history database for the weather conditions in past years. The results will help you decide how hot, cold, wet, or windy it might be!

Date:

Astronomy

Oct. 13, 2013 Rise Set
Actual Time 6:16 AM AEDT 7:06 PM AEDT
Civil Twilight 5:51 AM AEDT 7:32 PM AEDT
Nautical Twilight 5:21 AM AEDT 8:02 PM AEDT
Astronomical Twilight 4:50 AM AEDT 8:33 PM AEDT
Moon 1:14 PM AEDT (10/13) 2:09 AM AEDT (10/13)
Length of Visible Light 13h 41m
Length of Day
12h 50m
Waxing Gibbous, 62% of the Moon is Illuminated
Oct 13
Waxing Gibbous
Oct 19
Full
Oct 27
Last Quarter
Nov 3
New
Nov 10
First Quarter

Hourly Weather History & Observations

Time (AEDT) Temp. Dew Point Humidity Pressure Visibility Wind Dir Wind Speed Gust Speed Precip Events Conditions
12:00 AM 66 °F 64 °F 89% 29.74 in 12 mi Calm Calm - -   Haze
12:00 AM 66.2 °F 64.4 °F 94% 29.74 in - Calm Calm - N/A   Clear
12:30 AM 66.2 °F 64.4 °F 94% 29.71 in - SW 4.6 mph - N/A   Clear
1:00 AM 66 °F 62 °F 85% 29.73 in - West 4.6 mph - -  
1:00 AM 66.2 °F 62.6 °F 88% 29.71 in - West 4.6 mph - N/A   Clear
1:30 AM 66.2 °F 62.6 °F 88% 29.71 in - WNW 4.6 mph - N/A   Clear
2:00 AM 66 °F 61 °F 80% 29.71 in - NNW 4.6 mph - -  
2:30 AM 64.4 °F 60.8 °F 88% 29.68 in - North 5.8 mph - N/A   Clear
3:00 AM 65 °F 60 °F 80% 29.66 in 12 mi NNE 4.6 mph - -   Haze
3:00 AM 66.2 °F 60.8 °F 83% 29.65 in - NNE 4.6 mph - N/A   Clear
3:30 AM 66.2 °F 60.8 °F 83% 29.62 in - North 5.8 mph - N/A   Clear
4:00 AM 64 °F 59 °F 80% 29.65 in - NNW 11.5 mph - -  
4:00 AM 64.4 °F 59.0 °F 83% 29.65 in - NNW 11.5 mph - N/A   Clear
4:30 AM 64.4 °F 59.0 °F 83% 29.65 in - NNW 10.4 mph - N/A   Clear
5:00 AM 65 °F 58 °F 73% 29.65 in - North 10.4 mph - -  
5:00 AM 64.4 °F 59.0 °F 83% 29.62 in - North 10.4 mph - N/A   Clear
5:30 AM 64.4 °F 59.0 °F 83% 29.62 in - NW 5.8 mph - N/A   Clear
6:00 AM 64 °F 57 °F 73% 29.63 in 11 mi NNW 8.1 mph - -   Haze
6:00 AM 64.4 °F 57.2 °F 77% 29.62 in - NNW 8.1 mph - N/A   Clear
6:30 AM 64.4 °F 57.2 °F 77% 29.62 in - WNW 10.4 mph - N/A   Clear
7:00 AM 65 °F 56 °F 64% 29.62 in - NW 11.5 mph - -  
7:00 AM 66.2 °F 55.4 °F 68% 29.59 in - NW 11.5 mph - N/A   Clear
7:30 AM 68.0 °F 57.2 °F 68% 29.59 in - NNW 12.7 mph - N/A   Clear
8:00 AM 70 °F 56 °F 50% 29.61 in - NNW 15.0 mph - -  
8:00 AM 69.8 °F 55.4 °F 60% 29.59 in - NNW 15.0 mph - N/A   Clear
8:30 AM 75.2 °F 53.6 °F 47% 29.59 in - NW 11.5 mph - N/A   Clear
9:00 AM 76 °F 52 °F 32% 29.59 in 16 mi NW 10.4 mph - -   Haze
9:00 AM 77.0 °F 51.8 °F 41% 29.56 in - NW 10.4 mph - N/A   Clear
9:30 AM 80.6 °F 51.8 °F 37% 29.56 in - NW 12.7 mph - N/A   Clear
10:00 AM 84 °F 49 °F 20% 29.56 in - NW 15.0 mph - -  
10:00 AM 84.2 °F 48.2 °F 29% 29.53 in - NW 15.0 mph - N/A   Clear
10:30 AM 87.8 °F 44.6 °F 22% 29.53 in - NNW 20.7 mph 33.4 mph N/A   Clear
11:00 AM 89 °F 45 °F 13% 29.52 in - NNW 25.3 mph - -  
11:00 AM 89.6 °F 44.6 °F 21% 29.50 in - NNW 25.3 mph - N/A   Clear
11:15 AM 89.6 °F 42.8 °F 20% 29.47 in - NNW 20.7 mph 32.2 mph N/A   Clear
11:30 AM 91.4 °F 41.0 °F 17% 29.47 in - NNW 26.5 mph 41.4 mph N/A   Clear
12:00 PM 92 °F 40 °F 9% 29.47 in 16 mi NNW 25.3 mph - -   Haze
12:00 PM 91.4 °F 39.2 °F 16% 29.44 in - NNW 25.3 mph - N/A   Clear
12:18 PM 93.2 °F 37.4 °F 14% 29.44 in - NW 35.7 mph - N/A   Clear
12:30 PM 93.2 °F 35.6 °F 13% 29.44 in - NW 31.1 mph 46.0 mph N/A   Clear
1:00 PM 94 °F 37 °F 7% 29.43 in - NW 29.9 mph - -  
1:00 PM 93.2 °F 37.4 °F 14% 29.42 in - NW 29.9 mph 41.4 mph N/A   Clear
1:30 PM 95.0 °F 15.8 °F 6% 29.42 in - WNW 29.9 mph 41.4 mph N/A   Clear
2:00 PM 96 °F 30 °F 4% 29.43 in - West 29.9 mph - -  
2:00 PM 95.0 °F 30.2 °F 10% 29.42 in - West 29.9 mph 41.4 mph N/A   Clear
2:30 PM 95.0 °F 10.4 °F 4% 29.42 in - WNW 31.1 mph 42.6 mph N/A   Clear
3:00 PM 94 °F 4 °F 4% 29.42 in 16 mi West 33.4 mph - -   Partly Cloudy
3:00 PM 93.2 °F 5.0 °F 4% 29.42 in - West 33.4 mph 47.2 mph N/A   Clear
3:30 PM 95.0 °F 10.4 °F 4% 29.42 in - WNW 33.4 mph 44.9 mph N/A   Clear
4:00 PM 93.2 °F 3.2 °F 4% 29.39 in - WNW 27.6 mph - N/A   Clear
4:15 PM 93.2 °F -0.4 °F 4% 29.39 in - West 23.0 mph 34.5 mph N/A   Clear
4:30 PM 93.2 °F 5.0 °F 4% 29.39 in - West 23.0 mph 34.5 mph N/A   Clear
5:00 PM 92 °F 8 °F 4% 29.39 in - West 20.7 mph - -  
5:00 PM 93.2 °F 6.8 °F 4% 29.39 in - West 20.7 mph - N/A   Clear
5:12 PM 93.2 °F 6.8 °F 4% 29.39 in - WNW 24.2 mph 36.8 mph N/A   Clear
5:30 PM 91.4 °F 8.6 °F 5% 29.39 in - West 21.9 mph 33.4 mph N/A   Clear
6:00 PM 91 °F 18 °F 4% 29.39 in 19 mi West 20.7 mph - -   Partly Cloudy
6:00 PM 91.4 °F 17.6 °F 7% 29.39 in - West 20.7 mph - N/A   Clear
6:30 PM 89.6 °F 17.6 °F 7% 29.39 in - West 17.3 mph - N/A   Clear
6:51 PM 89.6 °F 19.4 °F 8% 29.39 in - West 19.6 mph 31.1 mph N/A   Clear
7:00 PM 89 °F 17 °F 4% 29.41 in - West 17.3 mph - -  
7:00 PM 89.6 °F 15.8 °F 7% 29.39 in - West 17.3 mph 31.1 mph N/A   Clear
7:30 PM 87.8 °F 21.2 °F 9% 29.42 in - West 23.0 mph 34.5 mph N/A   Clear
8:00 PM 86 °F 25 °F 5% 29.44 in - West 19.6 mph - -  
8:00 PM 86.0 °F 24.8 °F 11% 29.42 in - West 19.6 mph - N/A   Clear
8:13 PM 84.2 °F 26.6 °F 12% 29.44 in - West 21.9 mph 33.4 mph N/A   Clear
8:30 PM 78.8 °F 33.8 °F 20% 29.47 in - SW 31.1 mph 42.6 mph N/A   Clear
8:33 PM 78.8 °F 35.6 °F 21% 29.47 in - South 35.7 mph 47.2 mph N/A   Clear
8:37 PM 69.8 °F 59.0 °F 68% 29.50 in - South 39.1 mph 50.6 mph N/A   Clear
9:00 PM 67 °F 58 °F 67% 29.59 in 12 mi South 35.7 mph - -   Haze
9:00 PM 68.0 °F 59.0 °F 73% 29.56 in 6.2 mi South 32.2 mph 43.7 mph N/A   Mostly Cloudy
9:30 PM 66.2 °F 59.0 °F 78% 29.56 in 6.2 mi South 33.4 mph 44.9 mph N/A   Mostly Cloudy
9:32 PM 66.2 °F 59.0 °F 78% 29.56 in 6.2 mi South 33.4 mph 44.9 mph N/A   Mostly Cloudy
10:00 PM 66 °F 58 °F 69% 29.65 in - South 28.8 mph - -  
10:00 PM 66.2 °F 59.0 °F 78% 29.62 in 6.2 mi South 28.8 mph 41.4 mph N/A   Mostly Cloudy
10:30 PM 64.4 °F 59.0 °F 83% 29.62 in 6.2 mi South 29.9 mph - N/A Rain Light Rain
11:00 PM 65 °F 58 °F 71% 29.66 in - South 21.9 mph - -  
11:00 PM 64.4 °F 57.2 °F 77% 29.65 in 6.2 mi South 21.9 mph - N/A Rain Light Rain
11:30 PM 62.6 °F 57.2 °F 82% 29.65 in 6.2 mi South 17.3 mph - N/A Rain Light Rain